Meteopurmerend
purmerend
Purmerend - Baaienwijk



My webcam  My webcam


Onweer radar Meer informatie blitzortung!


Regen radar Meer informatie rain snow radar


Bezoek onze andere website:

CandyAppleRed WebdesignWebdesign Purmerend Candy Apple Red

MeteopurmerendBlog

Template documentation
and downloads



Het weer levert geen direct gevaar op.    Er zijn geen waarschuwingen afgegeven.

15 daagse weersverwachting Bristol (GB)

  • Overzicht
  • Per uur
  • 15 dagen
  • Extra
  • Vergelijk
  • Kaarten
  • Dagkaart
  • Meer »
  • Info
  • Statistieken
  • Directe link
    Temp 6h Neerslag Wind  
 05:31     21:04    Daglengte: 15:33 Vandaag
07:00
15°
 
4
13:00
18°
6.4 mm
7
19:00
17°
3.2 mm
8
 05:32     21:02    Daglengte: 15:30 Morgen
01:00
14°
 
6
07:00
13°
 
5
13:00
18°
 
7
19:00
17°
 
5
 05:34     21:00    Daglengte: 15:26 Vrijdag 30 Jul
01:00
14°
15.3 mm
3
07:00
13°
28.7 mm
6
13:00
18°
29.5 mm
5
19:00
18°
9.5 mm
5
 05:35     20:59    Daglengte: 15:24 Zaterdag 31 Jul
01:00
15°
 
3
Locatie info
Region: England
Latitude: 51.4538°N
Longitude: -2.5917°E
21 masl
Postcode: BS1 6
Temp/Neerslag /Baro Onweer/Dauwpunt
    Temp Baro 1h Neerslag Dauwpunt Wind UV Bewolking  
 05:31     21:04    Daglengte: 15:33 Vandaag
05:00
15°
1006.9 hPa
19%
12.8°
4
Windvlaag: 3.4 m/s
15%
06:00
15°
1007.0 hPa
20%
12.5°
4
Windvlaag: 3.4 m/s
12%
07:00
15°
1007.2 hPa
61%
12.9°
4
Windvlaag: 4.1 m/s
52%
08:00
16°
1007.3 hPa 0.8 mm
74%
13.4°
4
Windvlaag: 3.6 m/s
71%
09:00
16°
1007.4 hPa 1.6 mm
82%
13.6°
4
Windvlaag: 5.3 m/s
84%
10:00
16°
1007.5 hPa 1.7 mm
82%
13.5°
4
Windvlaag: 3.9 m/s
41%
11:00
16°
1007.1 hPa 1.1 mm
82%
13.7°
5
Windvlaag: 4.6 m/s
15%
12:00
17°
1006.7 hPa 1.2 mm
82%
13.7°
6
Windvlaag: 6.6 m/s
32%
13:00
18°
1006.6 hPa
82%
13.1°
7
Windvlaag: 6.6 m/s
29%
14:00
18°
1006.7 hPa 1.6 mm
82%
13.1°
7
Windvlaag: 6.7 m/s
34%
15:00
17°
1006.7 hPa 1.6 mm
82%
11.0°
8
Windvlaag: 6.7 m/s
36%
16:00
18°
1006.6 hPa
82%
10.0°
8
Windvlaag: 7.8 m/s
10%
17:00
17°
1006.7 hPa
39%
11.3°
8
Windvlaag: 6.1 m/s
5%
18:00
17°
1006.9 hPa
22%
12.8°
8
Windvlaag: 5.8 m/s
0%
19:00
17°
1007.1 hPa
17%
10.8°
8
Windvlaag: 5.4 m/s
4%
20:00
16°
1007.3 hPa
18%
9.6°
8
Windvlaag: 5.1 m/s
4%
21:00
15°
1007.7 hPa
20%
8.9°
7
Windvlaag: 4.6 m/s
5%
22:00
15°
1007.9 hPa
68%
10.0°
7
Windvlaag: 6.5 m/s
8%
23:00
14°
1008.2 hPa
69%
10.2°
7
Windvlaag: 6.8 m/s
32%
 05:32     21:02    Daglengte: 15:30 Morgen
00:00
14°
1008.1 hPa
66%
11.1°
5
Windvlaag: 5.2 m/s
10%
01:00
14°
1008.3 hPa
23%
11.4°
6
Windvlaag: 2.9 m/s
4%
02:00
14°
1008.3 hPa
22%
10.8°
5
Windvlaag: 1.7 m/s
16%
03:00
14°
1008.3 hPa
17%
11.1°
5
Windvlaag: 2.9 m/s
18%
04:00
13°
1008.4 hPa
18%
11.0°
5
Windvlaag: 2.9 m/s
15%
05:00
13°
1008.7 hPa
17%
11.2°
4
Windvlaag: 2.7 m/s
17%
06:00
13°
1009.1 hPa
14%
11.0°
4
Windvlaag: 2.8 m/s
8%
07:00
13°
1009.4 hPa
15%
11.3°
5
Windvlaag: 2.7 m/s
10%
08:00
15°
1009.7 hPa
14%
12.0°
5
Windvlaag: 2.2 m/s
13%
09:00
15°
1010.0 hPa
14%
12.1°
6
Windvlaag: 3.4 m/s
15%
10:00
16°
1010.3 hPa
15%
10.6°
6
Windvlaag: 4.1 m/s
27%
11:00
17°
1010.6 hPa
17%
10.0°
7
Windvlaag: 4.6 m/s
17%
12:00
17°
1010.5 hPa
15%
9.8°
7
Windvlaag: 5.4 m/s
24%
13:00
18°
1010.4 hPa
14%
11.3°
7
Windvlaag: 6 m/s
37%
14:00
18°
1010.3 hPa
14%
12.7°
7
Windvlaag: 6.1 m/s
42%
15:00
18°
1010.3 hPa
14%
14.0°
7
Windvlaag: 5.9 m/s
52%
16:00
19°
1010.2 hPa
14%
14.2°
7
Windvlaag: 4.9 m/s
54%
17:00
19°
1010.1 hPa
14%
14.2°
6
Windvlaag: 4.9 m/s
59%
18:00
18°
1010.1 hPa
22%
13.3°
6
Windvlaag: 3.9 m/s
80%
19:00
17°
1010.0 hPa
37%
12.8°
5
Windvlaag: 3.8 m/s
64%
20:00
17°
1009.9 hPa
73%
12.5°
4
Windvlaag: 3.8 m/s
68%
21:00
16°
1009.8 hPa
82%
12.1°
3
Windvlaag: 4 m/s
73%
22:00
15°
1009.1 hPa 3.7 mm
90%
10.3°
3
Windvlaag: 4.8 m/s
90%
23:00
15°
1008.7 hPa 4.0 mm
100%
10.2°
2
Windvlaag: 4.5 m/s
89%
 05:34     21:00    Daglengte: 15:26 Vrijdag 30 Jul
00:00
15°
1008.2 hPa 3.6 mm
100%
10.3°
3
Windvlaag: 5.3 m/s
98%
01:00
14°
1007.5 hPa 4.0 mm
100%
10.5°
3
Windvlaag: 5 m/s
94%
02:00
14°
1006.5 hPa 4.8 mm
100%
10.9°
4
Windvlaag: 3.7 m/s
99%
03:00
14°
1005.7 hPa 4.2 mm
100%
11.1°
4
Windvlaag: 2.5 m/s
99%
04:00
15°
1004.7 hPa 8.0 mm
100%
11.8°
4
Windvlaag: 0.3 m/s
100%
05:00
14°
1004.1 hPa 4.6 mm
100%
12.1°
5
Windvlaag: 0.1 m/s
100%
06:00
13°
1003.8 hPa 3.7 mm
100%
11.8°
6
Windvlaag: -1.7 m/s
100%
07:00
13°
1004.0 hPa 3.5 mm
100%
11.7°
6
Windvlaag: -3.1 m/s
100%
08:00
13°
1004.2 hPa 5.3 mm
100%
11.9°
5
Windvlaag: 8.5 m/s
100%
09:00
14°
1004.8 hPa 5.3 mm
100%
12.6°
5
Windvlaag: 7.2 m/s
97%
10:00
15°
1005.1 hPa 4.7 mm
99%
12.8°
4
Windvlaag: 5.8 m/s
94%
11:00
16°
1005.4 hPa 4.7 mm
100%
12.6°
4
Windvlaag: 6.1 m/s
100%
12:00
16°
1005.7 hPa 4.8 mm
100%
12.2°
4
Windvlaag: 6 m/s
100%
13:00
18°
1005.7 hPa 4.8 mm
100%
12.6°
5
Windvlaag: 6.7 m/s
86%
14:00
18°
1006.1 hPa
98%
13.4°
5
Windvlaag: 8.1 m/s
83%
15:00
18°
1006.5 hPa 4.7 mm
100%
13.9°
5
Windvlaag: 8.5 m/s
84%
16:00
19°
1006.7 hPa
98%
14.4°
6
Windvlaag: 9.4 m/s
91%
17:00
19°
1007.1 hPa 4.9 mm
100%
13.8°
5
Windvlaag: 9.2 m/s
70%
18:00
18°
1007.3 hPa
98%
13.1°
5
Windvlaag: 8.2 m/s
81%
19:00
18°
1007.7 hPa
97%
12.0°
5
Windvlaag: 8.1 m/s
62%
20:00
18°
1008.1 hPa
97%
12.2°
4
Windvlaag: 8 m/s
69%
21:00
17°
1008.7 hPa
42%
12.4°
3
Windvlaag: 7 m/s
45%
22:00
16°
1009.0 hPa
29%
12.2°
3
Windvlaag: 7.2 m/s
37%
23:00
16°
1009.3 hPa
25%
12.2°
3
Windvlaag: 8.1 m/s
46%
 05:35     20:59    Daglengte: 15:24 Zaterdag 31 Jul
00:00
15°
1009.5 hPa
25%
12.1°
3
Windvlaag: 8.2 m/s
66%
01:00
15°
1009.2 hPa
22%
12.3°
3
Windvlaag: 8.5 m/s
35%
Temp/Neerslag /Baro Onweer/Dauwpunt
    Temp Baro Neerslag Dauwpunt Wind Bewolking  
 05:31     21:04    Daglengte: 15:33 Vandaag
07:00
15°
1007.2 hPa   12.9°
4
52%
10:00
16°
1007.5 hPa 4.2 mm 13.5°
4
41%
13:00
18°
1006.6 hPa 2.3 mm 13.1°
7
29%
16:00
18°
1006.6 hPa 3.2 mm 10.0°
8
10%
19:00
17°
1007.1 hPa   10.8°
8
4%
22:00
15°
1007.9 hPa   10.0°
7
8%
 05:32     21:02    Daglengte: 15:30 Morgen
01:00
14°
1008.3 hPa   11.4°
6
4%
04:00
13°
1008.4 hPa   11.0°
5
15%
07:00
13°
1009.4 hPa   11.3°
5
10%
10:00
16°
1010.3 hPa   10.6°
6
27%
13:00
18°
1010.4 hPa   11.3°
7
37%
16:00
19°
1010.2 hPa   14.2°
7
54%
19:00
17°
1010.0 hPa   12.8°
5
64%
22:00
15°
1009.1 hPa 3.7 mm 10.3°
3
90%
 05:34     21:00    Daglengte: 15:26 Vrijdag 30 Jul
01:00
14°
1007.5 hPa 11.6 mm 10.5°
3
94%
04:00
15°
1004.7 hPa 16.9 mm 11.8°
4
100%
07:00
13°
1004.0 hPa 11.8 mm 11.7°
6
100%
10:00
15°
1005.1 hPa 15.3 mm 12.8°
4
94%
13:00
18°
1005.7 hPa 14.3 mm 12.6°
5
86%
16:00
19°
1006.7 hPa 4.7 mm 14.4°
6
91%
19:00
18°
1007.7 hPa 4.9 mm 12.0°
5
62%
22:00
16°
1009.0 hPa   12.2°
3
37%
 05:35     20:59    Daglengte: 15:24 Zaterdag 31 Jul
01:00
15°
1009.2 hPa   12.3°
3
35%
04:00
13°
1009.6 hPa 38.4 mm 12.1°
3
1%
07:00
13°
1010.1 hPa 38.4 mm 11.7°
3
1%
10:00
16°
1010.3 hPa 38.4 mm 11.7°
4
0%
13:00
18°
1010.3 hPa 39.0 mm 12.9°
5
0%
16:00
19°
1009.9 hPa 39.4 mm 13.3°
4
1%
19:00
18°
1009.7 hPa 39.8 mm 14.2°
5
1%
22:00
15°
1010.2 hPa 39.8 mm 13.2°
3
0%
 05:37     20:57    Daglengte: 15:20 Zondag 01 Aug
01:00
14°
1010.0 hPa 39.8 mm 13.0°
2
0%
04:00
13°
1009.6 hPa 39.8 mm 12.3°
1
0%
07:00
14°
1010.2 hPa 39.8 mm 12.2°
0
0%
10:00
16°
1010.5 hPa 39.8 mm 11.9°
1
1%
13:00
20°
1010.6 hPa 40.0 mm 11.6°
2
1%
16:00
20°
1010.5 hPa 40.3 mm 11.6°
3
0%
19:00
19°
1010.7 hPa 40.3 mm 11.4°
3
0%
22:00
14°
1012.0 hPa 40.3 mm 9.3°
2
0%
 05:38     20:56    Daglengte: 15:18 Maandag 02 Aug
01:00
13°
1012.4 hPa 40.3 mm 9.2°
2
0%
04:00
12°
1012.8 hPa 40.3 mm 10.1°
2
1%
07:00
13°
1013.7 hPa 40.3 mm 10.7°
3
1%
10:00
17°
1014.0 hPa 40.3 mm 11.5°
4
0%
13:00
20°
1014.0 hPa 40.4 mm 11.3°
3
0%
16:00
21°
1013.3 hPa 40.5 mm 9.4°
2
0%
19:00
19°
1013.4 hPa 40.5 mm 11.6°
3
0%
22:00
15°
1014.1 hPa 40.5 mm 11.6°
2
1%
 05:40     20:54    Daglengte: 15:14 Dinsdag 03 Aug
01:00
13°
1014.1 hPa 40.5 mm 10.8°
1
0%
04:00
12°
1013.5 hPa 40.5 mm 10.3°
1
1%
07:00
13°
1013.9 hPa 40.5 mm 10.0°
1
1%
10:00
16°
1013.6 hPa 40.5 mm 8.9°
3
1%
13:00
19°
1012.5 hPa 40.5 mm 7.6°
4
1%
16:00
20°
1011.8 hPa 40.5 mm 7.3°
3
0%
19:00
19°
1011.0 hPa 40.5 mm 11.2°
3
1%
22:00
16°
1011.1 hPa 40.5 mm 12.6°
3
1%
 05:41     20:52    Daglengte: 15:11 Woensdag 04 Aug
01:00
14°
1010.2 hPa 40.5 mm 12.1°
3
1%
04:00
14°
1008.5 hPa   13.2°
4
1%
07:00
15°
1007.7 hPa 81.0 mm 12.6°
4
1%
13:00
20°
1005.3 hPa 83.9 mm 15.4°
5
1%
19:00
19°
1004.6 hPa 89.2 mm 13.5°
3
0%
 05:43     20:50    Daglengte: 15:07 Donderdag 05 Aug
01:00
14°
1004.1 hPa 89.8 mm 13.7°
3
1%
07:00
15°
1003.7 hPa 89.8 mm 13.0°
3
1%
13:00
20°
1003.5 hPa 90.2 mm 10.8°
6
1%
19:00
17°
1002.8 hPa 91.1 mm 12.3°
5
1%
 05:45     20:49    Daglengte: 15:04 Vrijdag 06 Aug
01:00
13°
1001.6 hPa 91.5 mm 11.6°
3
1%
07:00
14°
997.5 hPa 91.6 mm 12.3°
2
1%
13:00
14°
996.6 hPa 111.7 mm 13.7°
1
1%
19:00
14°
998.4 hPa 139.4 mm 13.8°
3
1%
 05:46     20:47    Daglengte: 15:01 Zaterdag 07 Aug
01:00
14°
1008.3 hPa 0.6 mm 11.7°
2
58%
07:00
13°
1008.2 hPa 1.2 mm 12.1°
2
63%
13:00
19°
1009.2 hPa 1.0 mm 12.5°
5
57%
19:00
17°
1009.3 hPa 1.5 mm 12.6°
5
60%
 05:48     20:45    Daglengte: 14:57 Zondag 08 Aug
01:00
13°
1010.1 hPa 0.5 mm 12.0°
3
68%
07:00
13°
1009.7 hPa 0.5 mm 12.1°
3
62%
13:00
18°
1011.0 hPa 0.4 mm 12.3°
5
59%
19:00
17°
1011.5 hPa 1.2 mm 12.4°
5
53%
 05:49     20:43    Daglengte: 14:54 Maandag 09 Aug
01:00
13°
1013.0 hPa 0.4 mm 11.6°
3
48%
07:00
13°
1013.2 hPa 0.6 mm 11.9°
3
48%
13:00
19°
1014.9 hPa 0.6 mm 12.1°
4
53%
19:00
18°
1015.4 hPa 1.2 mm 12.5°
4
59%
 05:51     20:41    Daglengte: 14:50 Dinsdag 10 Aug
01:00
13°
1017.4 hPa 0.5 mm 11.4°
2
54%
07:00
13°
1018.0 hPa 0.2 mm 11.4°
2
50%
13:00
19°
1019.3 hPa 1.2 mm 12.1°
4
59%
19:00
18°
1019.3 hPa 0.8 mm 12.3°
4
42%
 05:52     20:39    Daglengte: 14:47 Woensdag 11 Aug
01:00
13°
1020.4 hPa 0.5 mm 11.0°
2
43%
07:00
13°
1019.7 hPa 0.2 mm 11.2°
2
48%
13:00
20°
1019.5 hPa 0.5 mm 12.4°
4
58%
19:00
18°
1018.1 hPa 1.2 mm 13.6°
4
55%
 05:54     20:37    Daglengte: 14:43 Donderdag 12 Aug
01:00
14°
1018.5 hPa 0.7 mm 12.2°
2
54%
  CAPE Lifted Index Hail Supercell Tornado SRH 3km CL BTM PRES CL TOP PRES Swiss DWD icon SMHI TS
 05:31     21:04    Daglengte: 15:33 Vandaag
05:00 87 J/kg 1.8 K 0 % 0 % 0 % 0 m²/s² 0 0 5.04 2
06:00 162 J/kg 1.2 K 0 % 0 % 0 % 0 m²/s² 0 0 4.17 2
07:00 227 J/kg 0.5 K 0 % 0 % 0 % 0 m²/s² 0 0 2.84 3
08:00 229 J/kg 0.2 K 0 % 0 % 0 % 0 m²/s² 0 0 3.14 80
09:00 209 J/kg 0.1 K 0 % 0 % 0 % 0 m²/s² 0 0 1.24 80
10:00 180 J/kg 0.3 K 0 % 0 % 0 % 0 m²/s² 0 0 0.84 80
11:00 217 J/kg 0.3 K 0 % 0 % 0 % 0 m²/s² 0 0 1.08 80
12:00 336 J/kg -0.9 K 0 % 0 % 0 % 0 m²/s² 0 0 -0.81 80
13:00 251 J/kg 1.0 K 0 % 0 % 0 % 0 m²/s² 0 0 4.15 3
14:00 207 J/kg 1.4 K 0 % 0 % 0 % 0 m²/s² 0 0 3.92 80
15:00 263 J/kg 1.6 K 0 % 0 % 0 % 0 m²/s² 0 0 2.11 80
16:00 228 J/kg 2.5 K 0 % 0 % 0 % 0 m²/s² 0 0 7.39 2
17:00 204 J/kg 3.3 K 0 % 0 % 0 % 0 m²/s² 0 0 8.46 2
18:00 144 J/kg 4.2 K 0 % 0 % 0 % 0 m²/s² 0 0 8.73 1
19:00 179 J/kg 4.0 K 0 % 0 % 0 % 0 m²/s² 0 0 9.01 2
20:00 141 J/kg 4.5 K 0 % 0 % 0 % 0 m²/s² 0 0 8.67 2
21:00 232 J/kg 3.9 K 0 % 0 % 0 % 0 m²/s² 0 0 6.72 2
22:00 297 J/kg 3.9 K 0 % 0 % 0 % 0 m²/s² 0 0 6.42 2
23:00 130 J/kg 6.4 K 0 % 0 % 0 % 0 m²/s² 0 0 6.82 3
 05:32     21:02    Daglengte: 15:30 Morgen
00:00 119 J/kg 6.8 K 0 % 0 % 0 % 0 m²/s² 0 0 7.73 3
01:00 341 J/kg 6.1 K 0 % 0 % 0 % 0 m²/s² 0 0 7.54 2
02:00 212 J/kg 7.3 K 0 % 0 % 0 % 0 m²/s² 0 0 9.49 2
03:00 193 J/kg 6.7 K 0 % 0 % 0 % 0 m²/s² 0 0 8.98 2
04:00 102 J/kg 7.5 K 0 % 0 % 0 % 0 m²/s² 0 0 11.43 3
05:00 49 J/kg 7.2 K 0 % 0 % 0 % 0 m²/s² 0 0 10.17 3
06:00 4 J/kg 7.0 K 0 % 0 % 0 % 0 m²/s² 0 0 9.88 1
07:00 15 J/kg 6.2 K 0 % 0 % 0 % 0 m²/s² 0 0 9.98 1
08:00 35 J/kg 4.9 K 0 % 0 % 0 % 0 m²/s² 0 0 9.01 2
09:00 60 J/kg 4.2 K 0 % 0 % 0 % 0 m²/s² 0 0 9 2
10:00 46 J/kg 4.4 K 0 % 0 % 0 % 0 m²/s² 0 0 9.74 3
11:00 58 J/kg 3.9 K 0 % 0 % 0 % 0 m²/s² 0 0 9.87 3
12:00 33 J/kg 4.3 K 0 % 0 % 0 % 0 m²/s² 0 0 9.79 3
13:00 41 J/kg 3.9 K 0 % 0 % 0 % 0 m²/s² 0 0 8.88 3
14:00 33 J/kg 4.0 K 0 % 0 % 0 % 0 m²/s² 0 0 8.29 3
15:00 11 J/kg 4.8 K 0 % 0 % 0 % 0 m²/s² 0 0 8.67 3
16:00 0 J/kg 5.4 K 0 % 0 % 0 % 0 m²/s² 0 0 9 3
17:00 0 J/kg 5.6 K 0 % 0 % 0 % 0 m²/s² 0 0 9.02 3
18:00 1 J/kg 5.3 K 0 % 0 % 0 % 0 m²/s² 0 0 8.63 3
19:00 1 J/kg 5.3 K 0 % 0 % 0 % 0 m²/s² 0 0 8.72 3
20:00 0 J/kg 5.1 K 0 % 0 % 0 % 0 m²/s² 0 0 9.18 61
21:00 0 J/kg 5.0 K 0 % 0 % 0 % 0 m²/s² 0 0 9.08 61
22:00 0 J/kg 4.8 K 0 % 0 % 0 % 0 m²/s² 0 0 10.65 61
23:00 3 J/kg 4.3 K 0 % 0 % 0 % 0 m²/s² 0 0 9.55 61
 05:34     21:00    Daglengte: 15:26 Vrijdag 30 Jul
00:00 15 J/kg 3.7 K 0 % 0 % 0 % 0 m²/s² 0 0 6.82 63
01:00 44 J/kg 3.2 K 0 % 0 % 0 % 0 m²/s² 0 0 5.42 63
02:00 119 J/kg 2.8 K 0 % 0 % 0 % 0 m²/s² 0 0 3.4 63
03:00 134 J/kg 2.4 K 0 % 0 % 0 % 0 m²/s² 0 0 2.91 63
04:00 165 J/kg 2.1 K 0 % 0 % 0 % 0 m²/s² 0 0 2.55 65
05:00 195 J/kg 1.1 K 0 % 0 % 0 % 0 m²/s² 0 0 1.7 65
06:00 205 J/kg 0.5 K 0 % 0 % 0 % 0 m²/s² 0 0 1.82 80
07:00 156 J/kg 0.1 K 0 % 0 % 0 % 0 m²/s² 0 0 1.63 61
08:00 124 J/kg 0.0 K 0 % 0 % 0 % 0 m²/s² 0 0 1.17 61
09:00 190 J/kg -0.3 K 0 % 0 % 0 % 0 m²/s² 0 0 0 61
10:00 261 J/kg -0.8 K 0 % 0 % 0 % 0 m²/s² 0 0 0.07 61
11:00 212 J/kg -0.6 K 0 % 0 % 0 % 0 m²/s² 0 0 0.18 61
12:00 423 J/kg -1.6 K 0 % 0 % 0 % 0 m²/s² 0 0 -0.79 61
13:00 417 J/kg -1.7 K 0 % 0 % 0 % 0 m²/s² 0 0 -0.77 80
14:00 448 J/kg -1.8 K 0 % 0 % 0 % 0 m²/s² 0 0 -0.78 3
15:00 513 J/kg -2.0 K 0 % 0 % 0 % 0 m²/s² 0 0 -0.89 3
16:00 431 J/kg -1.6 K 0 % 0 % 0 % 0 m²/s² 0 0 -0.64 3
17:00 333 J/kg -1.0 K 0 % 0 % 0 % 0 m²/s² 0 0 -0.16 80
18:00 210 J/kg -0.2 K 0 % 0 % 0 % 0 m²/s² 0 0 0.52 3
19:00 74 J/kg 0.9 K 0 % 0 % 0 % 0 m²/s² 0 0 1.83 3
20:00 85 J/kg 0.9 K 0 % 0 % 0 % 0 m²/s² 0 0 1.98 3
21:00 82 J/kg 1.0 K 0 % 0 % 0 % 0 m²/s² 0 0 2.08 2
22:00 49 J/kg 1.5 K 0 % 0 % 0 % 0 m²/s² 0 0 2.46 3
23:00 2 J/kg 2.2 K 0 % 0 % 0 % 0 m²/s² 0 0 3.13 3
 05:35     20:59    Daglengte: 15:24 Zaterdag 31 Jul
00:00 0 J/kg 2.3 K 0 % 0 % 0 % 0 m²/s² 0 0 3.17 3
01:00 0 J/kg 2.6 K 0 % 0 % 0 % 0 m²/s² 0 0 3.56 2
Temp Baro Wind Neerslag
  EWN Forecast EWN WRFDA DWD ICON FMI HIRLAM MET Norway GFS
 05:31     21:04    Daglengte: 15:33 Vandaag
07:00 15.2° 1007.2 hPa 3.6 m/s 0.0 mm 15.7° 1006.3 hPa 5.1 m/s 9.2 mm 15.2° 1007.2 hPa 3.5 m/s 0.0 mm 15.5° 1007.8 hPa 2.4 m/s 0.0 mm 14.2° 1007.0 hPa 4.1 m/s
10:00 15.9° 1007.5 hPa 4.3 m/s 4.2 mm 16.5° 1005.9 hPa 7.1 m/s 9.3 mm 16.2° 1007.7 hPa 4.2 m/s 1.4 mm 16.0° 1008.1 hPa 3.7 m/s 0.0 mm 16.4° 1006.8 hPa 6.6 m/s
13:00 17.8° 1006.6 hPa 7.1 m/s 2.3 mm 17.9° 1005.6 hPa 8.4 m/s 12.7 mm 18.6° 1006.6 hPa 5.6 m/s 0.7 mm 17.8° 1007.7 hPa 7.0 m/s 0.0 mm 18.5° 1006.5 hPa 8.0 m/s
16:00 17.7° 1006.6 hPa 8.4 m/s 3.2 mm 17.9° 1005.9 hPa 10.4 m/s 15.5 mm 17.3° 1006.7 hPa 7.0 m/s 1.8 mm 19.1° 1007.2 hPa 8.1 m/s 0.0 mm 18.1° 1006.8 hPa 9.1 m/s
19:00 16.7° 1007.1 hPa 8.1 m/s 0.0 mm 17.2° 1006.3 hPa 10.9 m/s 15.8 mm 16.6° 1007.2 hPa 6.5 m/s 0.0 mm 17.4° 1007.5 hPa 7.9 m/s 0.0 mm 16.5° 1007.1 hPa 7.9 m/s
22:00 14.8° 1007.9 hPa 7.0 m/s 0.0 mm 16.1° 1007.0 hPa 9.3 m/s 15.8 mm 14.2° 1008.1 hPa 5.2 m/s 0.0 mm 16.2° 1008.4 hPa 6.9 m/s 0.0 mm 14.3° 1008.2 hPa 6.4 m/s
 05:32     21:02    Daglengte: 15:30 Morgen
01:00 14.2° 1008.3 hPa 5.6 m/s 0.0 mm 14.6° 1007.1 hPa 6.2 m/s 26.1 mm 13.6° 1008.5 hPa 4.5 m/s 0.1 mm 14.7° 1008.5 hPa 5.6 m/s 0.0 mm 13.4° 1008.2 hPa 5.2 m/s
04:00 13.2° 1008.4 hPa 4.5 m/s 0.0 mm 13.7° 1007.6 hPa 6.5 m/s 31.0 mm 13.1° 1009.0 hPa 2.8 m/s 0.0 mm 13.8° 1008.2 hPa 4.3 m/s 0.0 mm 12.5° 1008.5 hPa 4.7 m/s
07:00 13.4° 1009.4 hPa 4.6 m/s 0.0 mm 13.7° 1008.8 hPa 6.2 m/s 31.0 mm 13.1° 1009.7 hPa 2.6 m/s 0.0 mm 14.5° 1008.8 hPa 4.5 m/s 0.0 mm 13.0° 1009.5 hPa 4.4 m/s
10:00 16.3° 1010.3 hPa 6.3 m/s 0.0 mm 16.5° 1009.2 hPa 8.8 m/s 31.0 mm 16.6° 1010.6 hPa 5.4 m/s 0.0 mm 16.0° 1010.4 hPa 7.5 m/s 0.0 mm 16.8° 1010.1 hPa 7.3 m/s
13:00 17.8° 1010.4 hPa 7.3 m/s 0.0 mm 17.9° 1009.4 hPa 10.5 m/s 31.0 mm 18.9° 1010.5 hPa 5.6 m/s 0.0 mm 16.8° 1011.0 hPa 8.5 m/s 0.0 mm 18.5° 1010.1 hPa 8.1 m/s
16:00 18.6° 1010.2 hPa 6.6 m/s 0.0 mm 18.1° 1009.6 hPa 10.4 m/s 31.0 mm 19.2° 1010.0 hPa 5.1 m/s 0.0 mm 16.2° 1011.6 hPa 7.1 m/s 0.0 mm 18.4° 1010.2 hPa 8.3 m/s
19:00 17.5° 1010.0 hPa 5.2 m/s 0.0 mm 17.4° 1009.7 hPa 8.3 m/s 31.0 mm 17.6° 1009.6 hPa 3.8 m/s 0.0 mm 17.1° 1012.7 hPa 6.1 m/s 0.0 mm 17.0° 1010.3 hPa 6.6 m/s
22:00 15.4° 1009.1 hPa 2.6 m/s 3.7 mm 16.3° 1009.9 hPa 6.9 m/s 31.0 mm 15.3° 1008.9 hPa 1.0 m/s 0.4 mm 14.7° 1010.8 hPa 4.3 m/s
 05:34     21:00    Daglengte: 15:26 Vrijdag 30 Jul
01:00 14.5° 1007.5 hPa 3.2 m/s 11.6 mm 16.1° 1009.7 hPa 5.1 m/s 31.0 mm 14.4° 1005.8 hPa 3.1 m/s 7.8 mm 12.6° 1010.5 hPa 2.9 m/s
04:00 14.6° 1004.7 hPa 3.5 m/s 16.9 mm 15.6° 1008.5 hPa 4.7 m/s 31.1 mm 14.8° 1000.9 hPa 2.4 m/s 21.5 mm 12.6° 1009.1 hPa 2.0 m/s
07:00 12.8° 1004.0 hPa 5.9 m/s 11.8 mm 14.7° 1008.1 hPa 5.8 m/s 32.8 mm 12.1° 1002.1 hPa 7.0 m/s 7.6 mm 12.4° 1008.3 hPa 1.7 m/s
10:00 15.0° 1005.1 hPa 3.9 m/s 15.3 mm 16.1° 1008.6 hPa 4.6 m/s 38.4 mm 14.7° 1004.2 hPa 3.7 m/s 3.7 mm 12.4° 1006.5 hPa 4.2 m/s
13:00 17.6° 1005.7 hPa 4.8 m/s 14.3 mm 18.9° 1008.5 hPa 5.9 m/s 40.9 mm 17.3° 1005.0 hPa 4.5 m/s 1.0 mm 12.1° 1005.4 hPa 6.4 m/s
16:00 18.7° 1006.7 hPa 5.7 m/s 4.7 mm 18.8° 1008.6 hPa 7.6 m/s 41.6 mm 18.6° 1006.2 hPa 5.2 m/s 0.2 mm 13.6° 1006.9 hPa 4.7 m/s
19:00 18.2° 1007.7 hPa 4.7 m/s 4.9 mm 19.0° 1009.3 hPa 6.1 m/s 43.5 mm 18.0° 1007.2 hPa 4.3 m/s 0.2 mm 14.0° 1008.2 hPa 3.6 m/s
22:00 16.2° 1009.0 hPa 2.9 m/s 0.0 mm 16.7° 1010.3 hPa 4.4 m/s 43.6 mm 16.0° 1008.7 hPa 2.5 m/s 0.0 mm 13.8° 1009.0 hPa 4.0 m/s
 05:35     20:59    Daglengte: 15:24 Zaterdag 31 Jul
01:00 14.8° 1009.2 hPa 2.9 m/s 0.0 mm 14.9° 1010.4 hPa 4.1 m/s 43.7 mm 14.8° 1008.9 hPa 2.6 m/s 0.0 mm 13.2° 1009.7 hPa 3.2 m/s
04:00 12.9° 1009.6 hPa 3.0 m/s 38.4 mm 12.9° 1009.6 hPa 3.0 m/s 38.4 mm
07:00 12.8° 1010.1 hPa 3.2 m/s 38.4 mm 12.8° 1010.1 hPa 3.2 m/s 38.4 mm
10:00 16.3° 1010.3 hPa 4.2 m/s 38.4 mm 16.3° 1010.3 hPa 4.2 m/s 38.4 mm
13:00 18.0° 1010.3 hPa 4.5 m/s 39.0 mm 18.0° 1010.3 hPa 4.5 m/s 39.0 mm
16:00 18.8° 1009.9 hPa 4.0 m/s 39.4 mm 18.8° 1009.9 hPa 4.0 m/s 39.4 mm
19:00 17.8° 1009.7 hPa 4.9 m/s 39.8 mm 17.8° 1009.7 hPa 4.9 m/s 39.8 mm
22:00 14.5° 1010.2 hPa 3.3 m/s 39.8 mm 14.5° 1010.2 hPa 3.3 m/s 39.8 mm
 05:37     20:57    Daglengte: 15:20 Zondag 01 Aug
01:00 13.6° 1010.0 hPa 2.2 m/s 39.8 mm 13.6° 1010.0 hPa 2.2 m/s 39.8 mm
04:00 12.8° 1009.6 hPa 0.7 m/s 39.8 mm 12.8° 1009.6 hPa 0.7 m/s 39.8 mm
07:00 13.9° 1010.2 hPa 0.3 m/s 39.8 mm 13.9° 1010.2 hPa 0.3 m/s 39.8 mm
10:00 16.5° 1010.5 hPa 0.6 m/s 39.8 mm 16.5° 1010.5 hPa 0.6 m/s 39.8 mm
13:00 19.8° 1010.6 hPa 2.3 m/s 40.0 mm 19.8° 1010.6 hPa 2.3 m/s 40.0 mm
16:00 20.3° 1010.5 hPa 2.9 m/s 40.3 mm 20.3° 1010.5 hPa 2.9 m/s 40.3 mm
19:00 19.0° 1010.7 hPa 3.2 m/s 40.3 mm 19.0° 1010.7 hPa 3.2 m/s 40.3 mm
22:00 13.8° 1012.0 hPa 1.6 m/s 40.3 mm 13.8° 1012.0 hPa 1.6 m/s 40.3 mm
 05:38     20:56    Daglengte: 15:18 Maandag 02 Aug
01:00 12.6° 1012.4 hPa 2.2 m/s 40.3 mm 12.6° 1012.4 hPa 2.2 m/s 40.3 mm
04:00 11.9° 1012.8 hPa 2.5 m/s 40.3 mm 11.9° 1012.8 hPa 2.5 m/s 40.3 mm
07:00 12.5° 1013.7 hPa 2.9 m/s 40.3 mm 12.5° 1013.7 hPa 2.9 m/s 40.3 mm
10:00 17.1° 1014.0 hPa 4.0 m/s 40.3 mm 17.1° 1014.0 hPa 4.0 m/s 40.3 mm
13:00 20.0° 1014.0 hPa 2.8 m/s 40.4 mm 20.0° 1014.0 hPa 2.8 m/s 40.4 mm
16:00 21.2° 1013.3 hPa 1.9 m/s 40.5 mm 21.2° 1013.3 hPa 1.9 m/s 40.5 mm
19:00 18.7° 1013.4 hPa 3.4 m/s 40.5 mm 18.7° 1013.4 hPa 3.4 m/s 40.5 mm
22:00 14.8° 1014.1 hPa 1.7 m/s 40.5 mm 14.8° 1014.1 hPa 1.7 m/s 40.5 mm
 05:40     20:54    Daglengte: 15:14 Dinsdag 03 Aug
01:00 13.4° 1014.1 hPa 1.1 m/s 40.5 mm 13.4° 1014.1 hPa 1.1 m/s 40.5 mm
04:00 12.3° 1013.5 hPa 1.2 m/s 40.5 mm 12.3° 1013.5 hPa 1.2 m/s 40.5 mm
07:00 12.9° 1013.9 hPa 1.3 m/s 40.5 mm 12.9° 1013.9 hPa 1.3 m/s 40.5 mm
10:00 16.1° 1013.6 hPa 2.8 m/s 40.5 mm 16.1° 1013.6 hPa 2.8 m/s 40.5 mm
13:00 19.2° 1012.5 hPa 3.6 m/s 40.5 mm 19.2° 1012.5 hPa 3.6 m/s 40.5 mm
16:00 20.0° 1011.8 hPa 3.4 m/s 40.5 mm 20.0° 1011.8 hPa 3.4 m/s 40.5 mm
19:00 18.8° 1011.0 hPa 3.4 m/s 40.5 mm 18.8° 1011.0 hPa 3.4 m/s 40.5 mm
22:00 15.6° 1011.1 hPa 2.5 m/s 40.5 mm 15.6° 1011.1 hPa 2.5 m/s 40.5 mm
 05:41     20:52    Daglengte: 15:11 Woensdag 04 Aug
01:00 14.0° 1010.2 hPa 2.9 m/s 40.5 mm 14.0° 1010.2 hPa 2.9 m/s 40.5 mm
04:00 14.5° 1008.5 hPa 3.6 m/s 40.5 mm 14.5° 1008.5 hPa 3.6 m/s 40.5 mm
07:00 14.8° 1007.7 hPa 4.2 m/s 40.5 mm 14.8° 1007.7 hPa 4.2 m/s 40.5 mm
13:00 19.6° 1005.3 hPa 5.2 m/s 43.1 mm 19.6° 1005.3 hPa 5.2 m/s 43.1 mm
19:00 18.5° 1004.6 hPa 3.3 m/s 44.8 mm 18.5° 1004.6 hPa 3.3 m/s 44.8 mm
 05:43     20:50    Daglengte: 15:07 Donderdag 05 Aug
01:00 14.3° 1004.1 hPa 3.1 m/s 44.9 mm 14.3° 1004.1 hPa 3.1 m/s 44.9 mm
07:00 14.6° 1003.7 hPa 3.3 m/s 44.9 mm 14.6° 1003.7 hPa 3.3 m/s 44.9 mm
13:00 19.7° 1003.5 hPa 6.4 m/s 45.3 mm 19.7° 1003.5 hPa 6.4 m/s 45.3 mm
19:00 17.5° 1002.8 hPa 4.7 m/s 45.6 mm 17.5° 1002.8 hPa 4.7 m/s 45.6 mm
 05:45     20:49    Daglengte: 15:04 Vrijdag 06 Aug
01:00 13.1° 1001.6 hPa 2.6 m/s 45.8 mm 13.1° 1001.6 hPa 2.6 m/s 45.8 mm
07:00 13.8° 997.5 hPa 1.8 m/s 45.8 mm 13.8° 997.5 hPa 1.8 m/s 45.8 mm
13:00 14.2° 996.6 hPa 1.1 m/s 63.1 mm 14.2° 996.6 hPa 1.1 m/s 63.1 mm
19:00 14.1° 998.4 hPa 2.6 m/s 71.4 mm 14.1° 998.4 hPa 2.6 m/s 71.4 mm
 05:46     20:47    Daglengte: 15:01 Zaterdag 07 Aug
01:00 13.5° 1008.3 hPa 2.2 m/s 0.6 mm
07:00 13.4° 1008.2 hPa 2.3 m/s 1.2 mm
13:00 18.7° 1009.2 hPa 4.6 m/s 1.0 mm
19:00 17.0° 1009.3 hPa 4.8 m/s 1.5 mm
 05:48     20:45    Daglengte: 14:57 Zondag 08 Aug
01:00 13.2° 1010.1 hPa 3.3 m/s 0.5 mm
07:00 13.2° 1009.7 hPa 2.9 m/s 0.5 mm
13:00 18.5° 1011.0 hPa 5.3 m/s 0.4 mm
19:00 17.2° 1011.5 hPa 4.7 m/s 1.2 mm
 05:49     20:43    Daglengte: 14:54 Maandag 09 Aug
01:00 13.3° 1013.0 hPa 3.1 m/s 0.4 mm
07:00 13.1° 1013.2 hPa 2.5 m/s 0.6 mm
13:00 19.0° 1014.9 hPa 4.3 m/s 0.6 mm
19:00 17.5° 1015.4 hPa 3.7 m/s 1.2 mm
 05:51     20:41    Daglengte: 14:50 Dinsdag 10 Aug
01:00 13.1° 1017.4 hPa 2.4 m/s 0.5 mm
07:00 12.9° 1018.0 hPa 1.9 m/s 0.2 mm
13:00 19.2° 1019.3 hPa 3.9 m/s 1.2 mm
19:00 18.0° 1019.3 hPa 3.7 m/s 0.8 mm
 05:52     20:39    Daglengte: 14:47 Woensdag 11 Aug
01:00 12.8° 1020.4 hPa 2.1 m/s 0.5 mm
07:00 12.9° 1019.7 hPa 1.7 m/s 0.2 mm
13:00 19.6° 1019.5 hPa 3.7 m/s 0.5 mm
19:00 18.3° 1018.1 hPa 3.6 m/s 1.2 mm
 05:54     20:37    Daglengte: 14:43 Donderdag 12 Aug
01:00 13.9° 1018.5 hPa 2.5 m/s 0.7 mm
FMI Hirlam - 7.5 km EWN WRFDA - 12 km DWD ICON - 7 km GFS - 25 km Basiskaart






























































Updatetijd (Europe/Amsterdam) Resolutie Lengte Stap
FMI Hirlam 01:45, 07:45, 13:45, 19:45 7.5 km 49h 1h
EWN WRFDA 22:30, 04:30, 10:30, 16:30 12 km 73h 1h
DWD ICON 00:00, 06:00, 12:00, 18:00 7 km 75h 1h
GFS 02:15, 08:15, 14:15, 20:15 25 km 237h 3h
30+ mm
25-30 mm
20-25 mm
15-20 mm
10-15 mm
6-10 mm
4-6 mm
2-4 mm
1-2 mm
0.5-1 mm
0.2-0.5 mm
0.1-0.2 mm
30+ mm
25-30 mm
20-25 mm
15-20 mm
10-15 mm
6-10 mm
4-6 mm
2-4 mm
1-2 mm
0.5-1 mm
0.2-0.5 mm
0.1-0.2 mm
Sneeuwval
Natte sneeuw
Hagel
Vorst
30+ mm
25-30 mm
20-25 mm
15-20 mm
10-15 mm
6-10 mm
4-6 mm
2-4 mm
1-2 mm
0.5-1 mm
0.2-0.5 mm
0.1-0.2 mm
Sneeuwval
Natte sneeuw
Hagel
Vorst
Onweer
50 mm
40 mm
30 mm
26 mm
22 mm
18 mm
14 mm
10 mm
9 mm
8 mm
7 mm
6 mm
5 mm
4.5 mm
4 mm
3.5 mm
3 mm
2.5 mm
2 mm
1.5 mm
1 mm
0.8 mm
0.6 mm
0.4 mm
0.2 mm
0.05 mm
35°
30°
25°
20°
15°
10°
-5°
-10°
-15°
-20°
-25°
-30°
-35°
33> m/s
29 m/s
25 m/s
21 m/s
17 m/s
14 m/s
11 m/s
8 m/s
5 m/s
3 m/s